This demonstration page uses our WeatherBlox Daily Observations layout. Learn more.

Left ArrowRight Arrow

Hourly Observations for January 4, 2022

Temp ( °F °C ) Dew Point ( °F °C ) Humidity (%) Winds ( mph kmh ) Pressure ( in mb ) Visibility ( mi km ) Precip ( " mm )
12:52 am 00:52 Partly Cloudy 28 -2.2 22 -5.6 78 78 SSE 14 22 29.98 1015 10 16 0.00 0.00
1:52 am 01:52 Partly Cloudy 26 -3.3 21 -6.1 81 81 SSE 13 20 29.96 1014 10 16 0.00 0.00
2:52 am 02:52 Partly Cloudy 29 -1.7 22 -5.6 75 75 SSE 17 28 29.93 1013 10 16 0.00 0.00
3:52 am 03:52 Mostly Cloudy 30 -1.1 22 -5.6 72 72 SSE 17 28 29.87 1011 10 16 0.00 0.00
4:52 am 04:52 Cloudy 29 -1.7 22 -5.6 75 75 SSE 16 26 29.83 1010 10 16 0.00 0.00
5:52 am 05:52 Cloudy 29 -1.7 22 -5.6 75 75 S 10 17 29.81 1009 10 16 0.00 0.00
6:52 am 06:52 Cloudy 29 -1.7 22 -5.6 75 75 S 13 20 29.76 1008 10 16 0.00 0.00
7:52 am 07:52 Mostly Cloudy 28 -2.2 22 -5.6 78 78 SSE 14 22 29.72 1007 10 16 0.00 0.00
8:52 am 08:52 Mostly Cloudy 30 -1.1 22 -5.6 72 72 SSE 16 26 29.69 1005 10 16 0.00 0.00
9:52 am 09:52 Mostly Cloudy 32 0 23 -5 69 69 SSE 10 17 29.68 1005 10 16 0.00 0.00
10:52 am 10:52 Mostly Cloudy 35 1.7 23 -5 61 61 S 17 28 29.66 1004 10 16 0.00 0.00
11:52 am 11:52 Mostly Cloudy 38 3.3 24 -4.4 57 57 SSW 16 26 29.60 1002 10 16 0.00 0.00
12:52 pm 12:52 Mostly Cloudy 39 3.9 25 -3.9 57 57 S 12 19 29.54 1000 10 16 0.00 0.00
1:52 pm 13:52 Mostly Cloudy 40 4.4 25 -3.9 55 55 S 13 20 29.49 999 10 16 0.00 0.00
2:52 pm 14:52 Partly Cloudy 42 5.6 26 -3.3 53 53 SSW 10 17 29.48 998 10 16 0.00 0.00
3:52 pm 15:52 Partly Cloudy 43 6.1 27 -2.8 53 53 SSW 10 17 29.50 999 10 16 0.00 0.00
4:52 pm 16:52 Mostly Sunny 42 5.6 27 -2.8 55 55 SW 5 7 29.52 1000 10 16 0.00 0.00
5:52 pm 17:52 Mostly Clear 41 5 27 -2.8 57 57 NW 21 33 29.59 1002 10 16 0.00 0.00
6:52 pm 18:52 Partly Cloudy 30 -1.1 20 -6.7 66 66 NW 33 54 29.72 1006 10 16 0.00 0.00
7:45 pm 19:45 Mostly Cloudy 25 -3.9 14 -10 63 63 NW 37 59 29.82 1010 10 16 0.00 0.00
7:52 pm 19:52 Cloudy 24 -4.4 13 -10.6 62 62 NW 35 56 29.79 1009 10 16 0.00 0.00
8:52 pm 20:52 Cloudy 23 -5 10 -12.2 57 57 NW 31 50 29.85 1011 10 16 0.00 0.00
9:52 pm 21:52 Mostly Cloudy 20 -6.7 6 -14.4 55 55 NNW 32 52 29.91 1013 10 16 0.00 0.00
10:24 pm 22:24 Mostly Cloudy 18 -7.8 6 -14.4 59 59 NW 32 52 29.98 1015 10 16 0.00 0.00
10:52 pm 22:52 Partly Cloudy 17 -8.3 4 -15.6 56 56 NW 36 57 29.94 1014 10 16 0.00 0.00
11:52 pm 23:52 Mostly Clear 14 -10 2 -16.7 58 58 NW 28 44 29.98 1015 10 16 0.00 0.00

Powered by AerisWeather